Weather History for Joplin, MO

Change the Weather History Date:

Thursday, January 24, 2013

  Actual Average Record
Temperature  
Mean Temperature -1 °C 2 °C  
Max Temperature 2 °C 7 °C 25 °C (1950)
Min Temperature -3 °C -4 °C -21 °C (1963)
Degree Days  
Heating Degree Days 34 30  
Month to date heating degree days 718 720  
Since 1 July heating degree days 2215 2337  
Cooling Degree Days 0 0  
Month to date cooling degree days 0 0  
Year to date cooling degree days 0 0  
Moisture  
Dew Point -9 °C    
Average Humidity 52    
Maximum Humidity 63    
Minimum Humidity 41    
Precipitation  
Precipitation 0.00 mm 1.52 mm 0.76 mm (1967)
Month to date precipitation 0.86 1.58  
Year to date precipitation 0.86 1.58  
Sea Level Pressure  
Sea Level Pressure 1025 hPa    
Wind  
Wind Speed 19 km/h (East)    
Max Wind Speed 27 km/h    
Max Gust Speed 42 km/h    
Visibility 16 kilometers    
Events      
T = Trace of Precipitation, MM = Missing Value Source: NWS Daily Summary

Daily Weather History Graph

Daily Weather History Graph

Search for Another Location

Airport:

Trip Planner

Search our weather history database for the weather conditions in past years. The results will help you decide how hot, cold, wet, or windy it might be!

Date:

Astronomy

Jan. 24, 2013 Rise Set
Actual Time 7:26 AM CST 5:34 PM CST
Civil Twilight 6:58 AM CST 6:02 PM CST
Nautical Twilight 6:26 AM CST 6:33 PM CST
Astronomical Twilight 5:56 AM CST 7:04 PM CST
Moon 3:37 PM CST (1/24) 5:23 AM CST (1/24)
Length of Visible Light 11h 03m
Length of Day
10h 08m
Waxing Gibbous, 94% of the Moon is Illuminated
Jan 24
Waxing Gibbous
Jan 26
Full
Feb 3
Last Quarter
Feb 10
New
Feb 17
First Quarter

Hourly Weather History & Observations

Time (CST) Temp. Windchill Dew Point Humidity Pressure Visibility Wind Dir Wind Speed Gust Speed Precip Events Conditions
12:53 AM 1.7 °C -3.1 °C -5.6 °C 59% 1027.1 hPa 16.1 km NNE 20.4 km/h / 5.7 m/s 42.6 km/h / 11.8 m/s N/A   Overcast
1:53 AM 0.6 °C -5.0 °C -7.2 °C 56% 1027.4 hPa 16.1 km NE 24.1 km/h / 6.7 m/s 42.6 km/h / 11.8 m/s N/A   Overcast
2:53 AM -0.6 °C - -7.8 °C 59% 1027.8 hPa 16.1 km North - - N/A   Overcast
3:53 AM -1.1 °C - -8.9 °C 56% 1027.7 hPa 16.1 km North - - N/A   Overcast
4:53 AM -1.7 °C - -10.0 °C 54% 1028.1 hPa 16.1 km North - - N/A   Overcast
5:53 AM -2.2 °C -7.7 °C -9.4 °C 58% 1028.1 hPa 16.1 km ENE 18.5 km/h / 5.1 m/s 31.5 km/h / 8.7 m/s N/A   Overcast
6:53 AM -2.8 °C -8.5 °C -10.0 °C 58% 1028.4 hPa 16.1 km ENE 18.5 km/h / 5.1 m/s 33.3 km/h / 9.3 m/s N/A   Overcast
7:53 AM -3.3 °C -9.4 °C -9.4 °C 63% 1028.3 hPa 16.1 km ENE 20.4 km/h / 5.7 m/s 31.5 km/h / 8.7 m/s N/A   Overcast
8:53 AM -3.3 °C -10.2 °C -9.4 °C 63% 1029.0 hPa 16.1 km ENE 25.9 km/h / 7.2 m/s 35.2 km/h / 9.8 m/s N/A   Overcast
9:53 AM -2.2 °C -8.3 °C -11.1 °C 51% 1028.5 hPa 16.1 km East 22.2 km/h / 6.2 m/s 35.2 km/h / 9.8 m/s N/A   Overcast
10:53 AM -0.6 °C -6.0 °C -11.1 °C 46% 1028.3 hPa 16.1 km East 20.4 km/h / 5.7 m/s 29.6 km/h / 8.2 m/s N/A   Overcast
11:53 AM -0.6 °C -5.4 °C -11.7 °C 43% 1028.0 hPa 16.1 km ENE 16.7 km/h / 4.6 m/s - N/A   Overcast
12:00 PM -1.0 °C -6.5 °C -11.0 °C 47% 1027.0 hPa 16.1 km East 20.4 km/h / 5.7 m/s - N/A   Overcast
12:53 PM 0.0 °C -4.4 °C -10.6 °C 45% 1026.7 hPa 16.1 km ENE 14.8 km/h / 4.1 m/s - N/A   Overcast
1:40 PM 1.0 °C - -11.0 °C 41% 1024.6 hPa - North - - N/A   Unknown
1:53 PM 1.1 °C -4.1 °C -10.6 °C 42% 1024.8 hPa 16.1 km ESE 22.2 km/h / 6.2 m/s - N/A   Overcast
2:00 PM 1.0 °C -4.9 °C -11.0 °C 41% 1023.9 hPa - East 27.8 km/h / 7.7 m/s 35.2 km/h / 9.8 m/s N/A   Unknown
2:31 PM 1.0 °C -4.0 °C -10.0 °C 44% 1023.6 hPa 16.1 km ESE 20.4 km/h / 5.7 m/s - N/A   Overcast
2:53 PM 1.1 °C -3.9 °C -10.0 °C 44% 1024.0 hPa 16.1 km ESE 20.4 km/h / 5.7 m/s - N/A   Overcast
3:53 PM 1.1 °C -3.9 °C -9.4 °C 46% 1023.8 hPa 16.1 km East 20.4 km/h / 5.7 m/s - N/A   Overcast
4:53 PM 0.6 °C -3.6 °C -6.7 °C 59% 1022.6 hPa 16.1 km East 14.8 km/h / 4.1 m/s - N/A   Overcast
5:53 PM 1.1 °C -3.0 °C -8.3 °C 50% 1022.9 hPa 16.1 km East 14.8 km/h / 4.1 m/s - N/A   Overcast
6:53 PM 1.1 °C -3.6 °C -8.3 °C 50% 1021.0 hPa 16.1 km ESE 18.5 km/h / 5.1 m/s - N/A   Overcast
7:53 PM 1.1 °C -1.8 °C -8.3 °C 50% 1022.5 hPa 16.1 km ESE 9.3 km/h / 2.6 m/s - N/A   Overcast
8:53 PM 1.1 °C -2.6 °C -7.2 °C 54% 1021.6 hPa 16.1 km ESE 13.0 km/h / 3.6 m/s - N/A   Overcast
9:53 PM 1.7 °C -1.1 °C -7.2 °C 52% 1021.3 hPa 16.1 km SE 9.3 km/h / 2.6 m/s - N/A   Overcast
10:53 PM 1.7 °C - -7.2 °C 52% 1021.2 hPa 16.1 km North - - N/A   Overcast
11:53 PM 1.1 °C -3.0 °C -7.8 °C 52% 1021.4 hPa 16.1 km SSE 14.8 km/h / 4.1 m/s - N/A   Overcast